Location: Fernhill
(41.0167°S, 175.6333°E)
Time: 00:10:16
(UTC+00:00)

Ariane Rocket - Pass Details

Date: 08 November 2025
Orbit: 754 x 765 km, 98.5° (Epoch: 04 December)

Event Time Altitude Azimuth Distance (km) Brightness Sun altitude
Rises 10:45:01 0° 166° (SSE) 3,269 7.0 -29.6°
Reaches altitude 10° 10:47:21 10° 165° (SSE) 2,336 6.1 -29.8°
Enters shadow 10:51:18 53° 155° (SSE) 949 3.6 -30.0°
